ProjectID,Date,Electric Generation,Electric Utility Import,Facility Electric Load
,YYYY-MM-DD,kW,kW,kW
92,2012-04-01,0.0,304.16,304.16
92,2012-04-02,0.0,345.28,345.28
92,2012-04-03,0.0,427.88000000000005,427.88000000000005
92,2012-04-04,0.0,427.84,427.84
92,2012-04-05,0.0,369.72,369.72
92,2012-04-06,0.0,344.76,344.76
92,2012-04-07,0.0,316.44,316.44
92,2012-04-08,0.0,322.24,322.24
92,2012-04-09,0.0,377.40000000000003,377.40000000000003
92,2012-04-10,0.0,415.48,415.48
92,2012-04-11,0.0,412.52,412.52
92,2012-04-12,0.0,368.8,368.8
92,2012-04-13,0.0,385.76,385.76
92,2012-04-14,0.0,352.48,352.48
92,2012-04-15,0.0,330.36,330.36
92,2012-04-16,0.0,325.56,325.56
92,2012-04-17,0.0,386.28,386.28
92,2012-04-18,0.0,456.48,456.48
92,2012-04-19,0.0,428.24,428.24
92,2012-04-20,0.0,324.52,324.52
92,2012-04-21,0.0,275.40000000000003,275.40000000000003
92,2012-04-22,0.0,296.84,296.84
92,2012-04-23,218.710375,320.28000000000003,538.9903750000001
92,2012-04-24,197.842625,393.56,591.402625
92,2012-04-25,194.36641666666665,400.40000000000003,594.7664166666667
92,2012-04-26,152.98779166666665,415.52,568.5077916666667
92,2012-04-27,180.16666666666666,350.35999999999996,530.5266666666666
92,2012-04-28,206.297375,322.48,528.777375
92,2012-04-29,205.82025,317.88,523.70025
92,2012-04-30,191.60616666666667,369.64000000000004,561.2461666666667
92,2012-05-01,146.13825,425.2,571.33825
92,2012-05-02,171.579625,366.11999999999995,537.699625
92,2012-05-03,165.44041666666666,399.72,565.1604166666667
92,2012-05-04,204.74170833333335,293.16,497.9017083333334
92,2012-05-05,220.56283333333332,262.08,482.64283333333333
92,2012-05-06,215.23137499999999,271.36,486.59137499999997
92,2012-05-07,201.781125,323.84,525.621125
92,2012-05-08,151.04225,474.64000000000004,625.6822500000001
92,2012-05-09,131.01733333333334,539.68,670.6973333333333
92,2012-05-10,139.96658333333332,443.56,583.5265833333333
92,2012-05-11,156.63825,338.2,494.83825
92,2012-05-12,143.79483333333334,332.88,476.67483333333337
92,2012-05-13,167.814375,305.68,473.494375
92,2012-05-14,193.589875,306.64,500.229875
92,2012-05-15,172.1235,374.2,546.3235
92,2012-05-16,155.62470833333333,396.72,552.3447083333333
92,2012-05-17,138.85570833333333,390.52,529.3757083333333
92,2012-05-18,166.43658333333335,303.92,470.35658333333333
92,2012-05-19,192.58716666666666,277.2,469.7871666666666
92,2012-05-20,208.60275000000001,267.2,475.80275
92,2012-05-21,217.36145833333333,291.71999999999997,509.08145833333333
92,2012-05-22,150.46204166666666,403.52,553.9820416666666
92,2012-05-23,105.61258333333335,444.84,550.4525833333333
92,2012-05-24,108.95916666666666,385.64000000000004,494.5991666666667
92,2012-05-25,133.50775000000002,350.76,484.26775
92,2012-05-26,193.450875,296.08,489.530875
92,2012-05-27,212.87575,268.32,481.19575
92,2012-05-28,212.42820833333334,277.44,489.8682083333333
92,2012-05-29,170.37475,391.2,561.57475
92,2012-05-30,125.49012499999999,437.44,562.930125
92,2012-05-31,123.30725,419.64000000000004,542.94725
92,2012-06-01,130.87025,87.36,218.23025
92,2012-06-02,144.41525,317.32,461.73524999999995
92,2012-06-03,159.62483333333333,311.92,471.5448333333334
92,2012-06-04,183.19741666666667,320.28000000000003,503.4774166666667
92,2012-06-05,157.079875,388.96000000000004,546.039875
92,2012-06-06,124.88320833333334,430.64000000000004,555.5232083333334
92,2012-06-07,118.578375,391.68,510.258375
92,2012-06-08,108.78399999999999,89.28,198.064
92,2012-06-09,185.40908333333334,289.44,474.84908333333334
92,2012-06-10,184.68633333333332,298.56,483.2463333333333
92,2012-06-11,179.4042916666667,77.76,257.1642916666667
92,2012-06-12,145.19754166666667,,145.19754166666667
92,2012-06-13,114.61754166666667,,114.61754166666667
92,2012-06-14,132.48904166666668,,132.48904166666668
92,2012-06-15,153.81458333333333,,153.81458333333333
92,2012-06-16,155.93641666666667,318.96,474.89641666666665
92,2012-06-17,154.35512500000002,323.24,477.59512500000005
92,2012-06-18,182.77070833333335,324.16,506.93070833333337
92,2012-06-19,142.575625,418.32,560.895625
92,2012-06-20,110.40441666666668,446.28,556.6844166666666
92,2012-06-21,102.36070833333333,402.44,504.8007083333333
92,2012-06-22,113.25795833333332,99.84,213.09795833333334
92,2012-06-23,142.59729166666668,,142.59729166666668
92,2012-06-24,172.61220833333334,,172.61220833333334
92,2012-06-25,171.71941666666666,340.76,512.4794166666667
92,2012-06-26,120.835375,412.2,533.0353749999999
92,2012-06-27,103.542875,439.35999999999996,542.902875
92,2012-06-28,103.17620833333332,109.44,212.6162083333333
92,2012-06-29,112.73908333333333,,112.73908333333333
92,2012-06-30,121.97295833333334,,121.97295833333334
92,2012-07-01,150.48129166666666,343.68,494.16129166666667
92,2012-07-02,138.80316666666667,396.2,535.0031666666666
92,2012-07-03,101.33270833333334,451.11999999999995,552.4527083333332
92,2012-07-04,102.88066666666667,417.76,520.6406666666667
92,2012-07-05,102.85958333333333,431.68,534.5395833333333
92,2012-07-06,101.445625,96.0,197.445625
92,2012-07-07,128.22,368.35999999999996,496.5799999999999
92,2012-07-08,148.63158333333334,349.16,497.7915833333334
92,2012-07-09,132.91595833333335,397.24,530.1559583333334
92,2012-07-10,117.596,436.8,554.396
92,2012-07-11,103.43129166666667,436.59999999999997,540.0312916666667
92,2012-07-12,32.147,540.92,573.067
92,2012-07-13,34.155208333333334,137.28,171.43520833333332
92,2012-07-14,122.052375,379.52,501.57237499999997
92,2012-07-15,146.34979166666668,353.28,499.6297916666666
92,2012-07-16,150.86820833333334,391.40000000000003,542.2682083333334
92,2012-07-17,120.72908333333334,463.44,584.1690833333333
92,2012-07-18,108.53975000000001,450.84,559.37975
92,2012-07-19,73.70533333333334,461.35999999999996,535.0653333333333
92,2012-07-20,102.794,96.96,199.754
92,2012-07-21,114.83104166666668,362.32,477.1510416666667
92,2012-07-22,152.83216666666667,339.56,492.39216666666664
92,2012-07-23,149.14745833333333,384.56,533.7074583333333
92,2012-07-24,116.76170833333333,445.2,561.9617083333333
92,2012-07-25,105.92416666666666,449.24,555.1641666666667
92,2012-07-26,102.53954166666666,449.0,551.5395416666667
92,2012-07-27,103.73679166666666,102.72,206.45679166666667
92,2012-07-28,103.32375,381.03999999999996,484.36375
92,2012-07-29,102.98450000000001,381.32,484.3045
92,2012-07-30,102.36429166666666,427.35999999999996,529.7242916666667
92,2012-07-31,45.21045833333333,532.1999999999999,577.4104583333333
92,2012-08-01,69.65975,494.2,563.85975
92,2012-08-02,102.98812500000001,397.2,500.188125
92,2012-08-03,105.64720833333332,94.08,199.72720833333332
92,2012-08-04,117.64620833333333,,117.64620833333333
92,2012-08-05,121.909875,,121.909875
92,2012-08-06,109.71433333333333,401.48,511.19433333333336
92,2012-08-07,106.84233333333333,444.24,551.0823333333333
92,2012-08-08,106.50929166666667,470.44,576.9492916666667
92,2012-08-09,103.29520833333333,441.08,544.3752083333334
92,2012-08-10,103.03612500000001,111.36,214.396125
92,2012-08-11,102.79320833333333,,102.79320833333333
92,2012-08-12,102.86291666666666,404.96000000000004,507.8229166666667
92,2012-08-13,103.130375,446.64000000000004,549.7703750000001
92,2012-08-14,104.226375,471.0,575.226375
92,2012-08-15,102.75045833333333,482.76,585.5104583333333
92,2012-08-16,34.744,552.64,587.384
92,2012-08-17,29.712333333333333,503.48,533.1923333333334
92,2012-08-18,114.35283333333332,391.76,506.1128333333333
92,2012-08-19,148.26720833333334,353.52,501.7872083333333
92,2012-08-20,126.05770833333334,414.40000000000003,540.4577083333334
92,2012-08-21,103.99458333333332,128.64,232.6345833333333
92,2012-08-22,69.26866666666668,510.0,579.2686666666667
92,2012-08-23,37.69745833333334,551.84,589.5374583333333
92,2012-08-24,103.35933333333332,110.4,213.75933333333333
92,2012-08-25,121.363625,374.84,496.203625
92,2012-08-26,173.778,331.0,504.778
92,2012-08-27,123.36708333333333,425.32,548.6870833333334
92,2012-08-28,119.29679166666666,435.96000000000004,555.2567916666667
92,2012-08-29,116.19345833333334,438.44,554.6334583333334
92,2012-08-30,104.02779166666666,450.08,554.1077916666667
92,2012-08-31,103.78212500000001,111.36,215.14212500000002
92,2012-09-01,103.37991666666666,,103.37991666666666
92,2012-09-02,103.47058333333332,,103.47058333333332
92,2012-09-03,121.924875,371.64000000000004,493.56487500000003
92,2012-09-04,118.46504166666666,414.76,533.2250416666667
92,2012-09-05,87.39466666666668,486.32,573.7146666666666
92,2012-09-06,70.02995833333334,124.8,194.82995833333334
92,2012-09-07,71.51791666666666,,71.51791666666666
92,2012-09-08,112.80920833333333,354.08,466.88920833333333
92,2012-09-09,140.17183333333332,333.48,473.65183333333334
92,2012-09-10,89.38825000000001,444.96000000000004,534.34825
92,2012-09-11,89.29383333333334,461.68,550.9738333333333
92,2012-09-12,108.52983333333333,428.08,536.6098333333333
92,2012-09-13,108.38204166666667,374.16,482.5420416666667
92,2012-09-14,107.609625,367.88000000000005,475.48962500000005
92,2012-09-15,108.436125,374.68,483.116125
92,2012-09-16,138.93770833333335,356.2,495.1377083333333
92,2012-09-17,148.46770833333332,378.88000000000005,527.3477083333333
92,2012-09-18,128.33725,419.59999999999997,547.93725
92,2012-09-19,133.56633333333335,374.28,507.8463333333333
92,2012-09-20,129.49066666666667,363.28,492.77066666666667
92,2012-09-21,143.691375,85.44,229.131375
92,2012-09-22,143.36704166666667,304.88,448.24704166666663
92,2012-09-23,144.18258333333333,311.08,455.2625833333333
92,2012-09-24,120.84770833333333,321.44,442.28770833333334
92,2012-09-25,64.07616666666667,387.35999999999996,451.4361666666666
92,2012-09-26,67.96754166666666,446.8,514.7675416666667
92,2012-09-27,38.58329166666667,455.8,494.38329166666665
92,2012-09-28,112.33425,84.48,196.81425000000002
92,2012-09-29,129.37025,318.24,447.61025
92,2012-09-30,135.47470833333333,314.68,450.15470833333336
92,2012-10-01,158.53770833333334,319.68,478.21770833333335
92,2012-10-02,130.08587500000002,366.52,496.60587499999997
92,2012-10-03,124.44275,367.03999999999996,491.48274999999995
92,2012-10-04,124.85654166666666,369.76,494.61654166666665
92,2012-10-05,128.911,95.04,223.95100000000002
92,2012-10-06,163.89075,272.16,436.05075
92,2012-10-07,165.35370833333334,287.76,453.1137083333333
92,2012-10-08,187.3045,251.88,439.18449999999996
92,2012-10-09,176.87654166666667,313.56,490.4365416666667
92,2012-10-10,150.71708333333333,90.24,240.95708333333334
92,2012-10-11,113.23720833333334,412.48,525.7172083333334
92,2012-10-12,119.21591666666666,124.8,244.01591666666667
92,2012-10-13,145.274625,337.16,482.434625
92,2012-10-14,144.65533333333335,322.16,466.81533333333334
92,2012-10-15,124.51691666666666,88.32,212.83691666666664
92,2012-10-16,106.36029166666667,,106.36029166666667
92,2012-10-17,105.98708333333333,413.8,519.7870833333334
92,2012-10-18,38.369,490.84,529.209
92,2012-10-19,91.75558333333333,133.44,225.19558333333333
92,2012-10-20,188.15941666666666,345.68,533.8394166666667
92,2012-10-21,225.33329166666667,309.12,534.4532916666667
92,2012-10-22,225.1425833333333,292.36,517.5025833333333
92,2012-10-23,200.17929166666667,310.84,511.0192916666666
92,2012-10-24,136.36825000000002,379.44,515.80825
92,2012-10-25,63.21475,466.64000000000004,529.8547500000001
92,2012-10-26,79.5805,145.92,225.5005
92,2012-10-27,133.95354166666667,319.76,453.71354166666663
92,2012-10-28,196.84104166666668,280.48,477.3210416666667
92,2012-10-29,189.24404166666667,71.04,260.28404166666667
92,2012-10-30,118.78508333333333,,118.78508333333333
92,2012-10-31,60.25925,,60.25925
92,2012-11-01,39.66475,435.84,475.50474999999994
92,2012-11-02,127.06033333333333,84.48,211.54033333333334
92,2012-11-03,145.85875000000001,303.8,449.65875000000005
92,2012-11-04,117.11666666666667,285.48,402.5966666666667
92,2012-11-05,115.84625,330.92,446.76625
92,2012-11-06,159.6445,329.40000000000003,489.0445
92,2012-11-07,120.03245833333334,433.88000000000005,553.9124583333333
92,2012-11-08,98.30075,111.36,209.66075
92,2012-11-09,64.49120833333333,,64.49120833333333
92,2012-11-10,136.24625,,136.24625
92,2012-11-11,174.66466666666668,,174.66466666666668
92,2012-11-12,213.39962500000001,,213.39962500000001
92,2012-11-13,190.09554166666666,,190.09554166666666
92,2012-11-14,121.19358333333334,,121.19358333333334
92,2012-11-15,105.99516666666666,,105.99516666666666
92,2012-11-16,127.314375,,127.314375
92,2012-11-17,146.67141666666666,,146.67141666666666
92,2012-11-18,169.49820833333334,,169.49820833333334
92,2012-11-19,166.10758333333334,,166.10758333333334
92,2012-11-20,129.85620833333334,,129.85620833333334
92,2012-11-21,110.71729166666667,,110.71729166666667
92,2012-11-22,98.584875,,98.584875
92,2012-11-23,-2.5984166666666666,,-2.5984166666666666
92,2012-11-24,0.0,,0.0
92,2012-11-25,0.0,,0.0
92,2012-11-26,0.0,,0.0
92,2012-11-27,0.0,,0.0
92,2012-11-28,0.0,,0.0
92,2012-11-29,0.0,,0.0
92,2012-11-30,59.27775,,59.27775
92,2012-12-01,160.567125,,160.567125
92,2012-12-02,155.86279166666665,,155.86279166666665
92,2012-12-03,129.01841666666667,,129.01841666666667
92,2012-12-04,110.13974999999999,,110.13974999999999
92,2012-12-05,110.91695833333334,,110.91695833333334
92,2012-12-06,45.838208333333334,,45.838208333333334
92,2012-12-07,23.917083333333334,,23.917083333333334
92,2012-12-08,0.0,,0.0
92,2012-12-09,0.0,,0.0
92,2012-12-10,0.0,,0.0
92,2012-12-11,0.0,,0.0
92,2012-12-12,0.0,585.68,585.68
92,2012-12-13,0.0,,0.0
92,2012-12-14,64.12029166666666,,64.12029166666666
92,2012-12-15,175.90733333333333,,175.90733333333333
92,2012-12-16,191.553625,,191.553625
92,2012-12-17,214.54999999999998,,214.54999999999998
92,2012-12-18,209.98033333333333,,209.98033333333333
92,2012-12-19,173.45333333333335,,173.45333333333335
92,2012-12-20,135.09579166666666,,135.09579166666666
92,2012-12-21,194.3540416666667,,194.3540416666667
92,2012-12-22,203.854875,,203.854875
92,2012-12-23,167.39158333333333,,167.39158333333333
92,2012-12-24,144.57225,,144.57225
92,2012-12-25,145.32825,,145.32825
92,2012-12-26,151.85891666666666,,151.85891666666666
92,2012-12-27,123.61354166666666,,123.61354166666666
92,2012-12-28,110.60229166666666,,110.60229166666666
92,2012-12-29,109.70679166666667,,109.70679166666667
92,2012-12-30,129.47520833333334,,129.47520833333334
92,2012-12-31,138.493875,,138.493875
92,2013-01-01,145.18316666666666,0.0,145.18316666666666
92,2013-01-02,133.00354166666668,0.0,133.00354166666668
92,2013-01-03,105.08024999999999,0.0,105.08024999999999
92,2013-01-04,112.07770833333332,0.0,112.07770833333332
92,2013-01-05,115.50154166666665,0.0,115.50154166666665
92,2013-01-06,115.49762500000001,0.0,115.49762500000001
92,2013-01-07,74.43629166666666,0.0,74.43629166666666
92,2013-01-08,0.0,0.0,0.0
92,2013-01-09,0.0,0.0,0.0
92,2013-01-10,0.0,0.0,0.0
92,2013-01-11,0.0,0.0,0.0
92,2013-01-12,0.0,0.0,0.0
92,2013-01-13,0.0,0.0,0.0
92,2013-01-14,0.0,0.0,0.0
92,2013-01-15,0.0,0.0,0.0
92,2013-01-16,0.0,0.0,0.0
92,2013-01-17,0.0,0.0,0.0
92,2013-01-18,0.0,0.0,0.0
92,2013-01-19,0.0,0.0,0.0
92,2013-01-20,0.0,0.0,0.0
92,2013-01-21,0.0,0.0,0.0
92,2013-01-22,10.972916666666668,0.0,10.972916666666668
92,2013-01-23,0.0,0.0,0.0
92,2013-01-24,0.0,0.0,0.0
92,2013-01-25,0.0,0.0,0.0
92,2013-01-26,0.0,0.0,0.0
92,2013-01-27,0.0,0.0,0.0
92,2013-01-28,0.0,0.0,0.0
92,2013-01-29,0.0,0.0,0.0
92,2013-01-30,0.0,0.0,0.0
92,2013-01-31,0.0,0.0,0.0
92,2013-02-01,0.0,0.0,0.0
92,2013-02-02,0.0,0.0,0.0
92,2013-02-03,0.0,0.0,0.0
92,2013-02-04,0.0,0.0,0.0
92,2013-02-05,0.0,0.0,0.0
92,2013-02-06,0.0,0.0,0.0
92,2013-02-07,42.89083333333334,0.0,42.89083333333334
92,2013-02-08,119.15387500000001,0.0,119.15387500000001
92,2013-02-09,127.93633333333334,0.0,127.93633333333334
92,2013-02-10,163.00908333333334,0.0,163.00908333333334
92,2013-02-11,166.14829166666667,0.0,166.14829166666667
92,2013-02-12,156.0045,0.0,156.0045
92,2013-02-13,128.80670833333332,0.0,128.80670833333332
92,2013-02-14,109.58675,0.0,109.58675
92,2013-02-15,146.47825,0.0,146.47825
92,2013-02-16,165.062375,0.0,165.062375
92,2013-02-17,189.31916666666666,0.0,189.31916666666666
92,2013-02-18,162.39616666666666,0.0,162.39616666666666
92,2013-02-19,145.88083333333333,0.0,145.88083333333333
92,2013-02-20,149.40245833333333,0.0,149.40245833333333
92,2013-02-21,113.31641666666667,0.0,113.31641666666667
92,2013-02-22,106.16683333333333,0.0,106.16683333333333
92,2013-02-23,129.47691666666665,0.0,129.47691666666665
92,2013-02-24,171.0281666666667,0.0,171.0281666666667
92,2013-02-25,185.27083333333334,0.0,185.27083333333334
92,2013-02-26,175.133,0.0,175.133
92,2013-02-27,148.52,0.0,148.52
92,2013-02-28,216.944625,0.0,216.944625
92,2013-03-01,231.69508333333332,0.0,231.69508333333332
92,2013-03-02,230.0835,0.0,230.0835
92,2013-03-03,230.98350000000002,0.0,230.98350000000002
92,2013-03-04,213.317875,0.0,213.317875
92,2013-03-05,165.68208333333334,0.0,165.68208333333334
92,2013-03-06,135.96704166666666,0.0,135.96704166666666
92,2013-03-07,148.25058333333334,0.0,148.25058333333334
92,2013-03-08,194.37366666666665,0.0,194.37366666666665
92,2013-03-09,224.39066666666668,0.0,224.39066666666668
92,2013-03-10,214.98325,0.0,214.98325
92,2013-03-11,220.3155833333333,0.0,220.3155833333333
92,2013-03-12,196.591125,0.0,196.591125
92,2013-03-13,201.23295833333336,0.0,201.23295833333336
92,2013-03-14,212.88595833333332,0.0,212.88595833333332
92,2013-03-15,223.74474999999998,0.0,223.74474999999998
92,2013-03-16,230.92166666666665,0.0,230.92166666666665
92,2013-03-17,224.62245833333336,0.0,224.62245833333336
92,2013-03-18,201.13241666666667,0.0,201.13241666666667
92,2013-03-19,194.47279166666667,0.0,194.47279166666667
92,2013-03-20,148.91495833333332,0.0,148.91495833333332
92,2013-03-21,146.32254166666667,0.0,146.32254166666667
92,2013-03-22,180.795,0.0,180.795
92,2013-03-23,194.93458333333334,0.0,194.93458333333334
92,2013-03-24,195.830375,0.0,195.830375
92,2013-03-25,195.32995833333334,0.0,195.32995833333334
92,2013-03-26,148.79554166666665,0.0,148.79554166666665
92,2013-03-27,128.19133333333335,0.0,128.19133333333335
92,2013-03-28,131.30054166666667,0.0,131.30054166666667
92,2013-03-29,162.57375,0.0,162.57375
92,2013-03-30,170.19033333333334,0.0,170.19033333333334
92,2013-03-31,170.18775,0.0,170.18775
92,2013-04-01,171.46208333333334,0.0,171.46208333333334
92,2013-04-02,90.76058333333333,0.0,90.76058333333333
92,2013-04-03,100.11787500000001,0.0,100.11787500000001
92,2013-04-04,147.18754166666668,0.0,147.18754166666668
92,2013-04-05,189.39954166666666,0.0,189.39954166666666
92,2013-04-06,198.18716666666668,0.0,198.18716666666668
92,2013-04-07,195.68129166666665,0.0,195.68129166666665
92,2013-04-08,206.695125,0.0,206.695125
92,2013-04-09,156.97770833333334,0.0,156.97770833333334
92,2013-04-10,135.66591666666667,0.0,135.66591666666667
92,2013-04-11,127.29416666666667,0.0,127.29416666666667
92,2013-04-12,168.08925,0.0,168.08925
92,2013-04-13,204.88845833333335,0.0,204.88845833333335
92,2013-04-14,222.98483333333334,0.0,222.98483333333334
92,2013-04-15,174.84529166666667,0.0,174.84529166666667
92,2013-04-16,172.97016666666664,0.0,172.97016666666664
92,2013-04-17,174.77466666666666,0.0,174.77466666666666
92,2013-04-18,151.62333333333333,0.0,151.62333333333333
92,2013-04-19,183.71933333333334,0.0,183.71933333333334
92,2013-04-20,204.11608333333334,0.0,204.11608333333334
92,2013-04-21,206.73195833333332,0.0,206.73195833333332
92,2013-04-22,220.49370833333333,0.0,220.49370833333333
92,2013-04-23,187.00029166666664,0.0,187.00029166666664
92,2013-04-24,194.9862916666667,0.0,194.9862916666667
92,2013-04-25,152.07891666666666,0.0,152.07891666666666
92,2013-04-26,155.31120833333333,0.0,155.31120833333333
92,2013-04-27,30.583583333333333,0.0,30.583583333333333
92,2013-04-28,0.0,0.0,0.0
92,2013-04-29,100.23166666666667,0.0,100.23166666666667
92,2013-04-30,204.73054166666668,0.0,204.73054166666668
92,2013-05-01,177.00587499999997,0.0,177.00587499999997
92,2013-05-02,206.88133333333334,0.0,206.88133333333334
92,2013-05-03,202.53333333333333,0.0,202.53333333333333
92,2013-05-04,202.32341666666665,0.0,202.32341666666665
92,2013-05-05,202.50633333333334,0.0,202.50633333333334
92,2013-05-06,192.95562500000003,0.0,192.95562500000003
92,2013-05-07,199.33787500000003,0.0,199.33787500000003
92,2013-05-08,190.06683333333334,0.0,190.06683333333334
92,2013-05-09,164.22670833333333,0.0,164.22670833333333
92,2013-05-10,143.54554166666665,0.0,143.54554166666665
92,2013-05-11,182.76558333333332,0.0,182.76558333333332
92,2013-05-12,224.84225,0.0,224.84225
92,2013-05-13,209.67258333333334,0.0,209.67258333333334
92,2013-05-14,184.67016666666666,0.0,184.67016666666666
92,2013-05-15,175.0834166666667,0.0,175.0834166666667
92,2013-05-16,166.64716666666666,0.0,166.64716666666666
92,2013-05-17,128.77454166666666,0.0,128.77454166666666
92,2013-05-18,139.63258333333332,0.0,139.63258333333332
92,2013-05-19,187.80591666666666,0.0,187.80591666666666
92,2013-05-20,186.48045833333333,0.0,186.48045833333333
92,2013-05-21,166.03875,0.0,166.03875
92,2013-05-22,142.01604166666667,0.0,142.01604166666667
92,2013-05-23,181.7675,0.0,181.7675
92,2013-05-24,194.39529166666668,0.0,194.39529166666668
92,2013-05-25,152.21283333333335,0.0,152.21283333333335
92,2013-05-26,146.8215,0.0,146.8215
92,2013-05-27,174.72054166666666,0.0,174.72054166666666
92,2013-05-28,168.32408333333333,0.0,168.32408333333333
92,2013-05-29,141.956375,0.0,141.956375
92,2013-05-30,108.933625,0.0,108.933625
92,2013-05-31,139.63120833333332,0.0,139.63120833333332
92,2013-06-01,147.94495833333335,0.0,147.94495833333335
92,2013-06-02,98.92899999999999,0.0,98.92899999999999
92,2013-06-03,178.834375,0.0,178.834375
92,2013-06-04,189.22529166666666,0.0,189.22529166666666
92,2013-06-05,150.82591666666667,0.0,150.82591666666667
92,2013-06-06,103.34016666666668,0.0,103.34016666666668
92,2013-06-07,36.96779166666666,0.0,36.96779166666666
92,2013-06-08,-11.774958333333332,0.0,-11.774958333333332
92,2013-06-09,-11.816083333333333,0.0,-11.816083333333333
92,2013-06-10,-11.785208333333335,0.0,-11.785208333333335
92,2013-06-11,-11.466208333333334,0.0,-11.466208333333334
92,2013-06-12,44.588625,0.0,44.588625
92,2013-06-13,123.73833333333333,0.0,123.73833333333333
92,2013-06-14,183.16816666666668,0.0,183.16816666666668
92,2013-06-15,193.38041666666666,0.0,193.38041666666666
92,2013-06-16,158.71395833333335,0.0,158.71395833333335
92,2013-06-17,114.45100000000001,0.0,114.45100000000001
92,2013-06-18,114.15366666666667,0.0,114.15366666666667
92,2013-06-19,52.27845833333333,0.0,52.27845833333333
92,2013-06-20,95.51408333333335,0.0,95.51408333333335
92,2013-06-21,107.65820833333333,0.0,107.65820833333333
92,2013-06-22,103.48045833333333,0.0,103.48045833333333
92,2013-06-23,100.2165,0.0,100.2165
92,2013-06-24,156.51516666666666,0.0,156.51516666666666
92,2013-06-25,179.00170833333334,0.0,179.00170833333334
92,2013-06-26,188.091625,0.0,188.091625
92,2013-06-27,60.313874999999996,0.0,60.313874999999996
92,2013-06-28,26.72458333333333,0.0,26.72458333333333
92,2013-06-29,178.38791666666668,0.0,178.38791666666668
92,2013-06-30,208.47704166666665,0.0,208.47704166666665
92,2013-07-01,134.33729166666666,0.0,134.33729166666666
92,2013-07-02,127.29229166666666,0.0,127.29229166666666
92,2013-07-03,135.946875,0.0,135.946875
92,2013-07-04,173.29308333333333,0.0,173.29308333333333
92,2013-07-05,152.29262500000002,0.0,152.29262500000002
92,2013-07-06,142.38516666666666,0.0,142.38516666666666
92,2013-07-07,155.74208333333334,0.0,155.74208333333334
92,2013-07-08,155.66820833333333,0.0,155.66820833333333
92,2013-07-09,113.07937500000001,0.0,113.07937500000001
92,2013-07-10,107.123,0.0,107.123
92,2013-07-11,76.32725,0.0,76.32725
92,2013-07-12,141.483625,0.0,141.483625
92,2013-07-13,152.6585,0.0,152.6585